Time,TemperatureF,DewpointF,PressureIn,WindDirection,WindDirectionDegrees,WindSpeedMPH,WindSpeedGustMPH,Humidity,HourlyPrecipIn,Conditions,Clouds,dailyrainin,SoftwareType,DateUTC
2013-03-18 00:23:00,25.0,-99.9,30.32,NNE,16,-999.0,-999.0,-999,-99.99,,,-99.99,,2013-03-18 04:23:00,
2013-03-18 00:33:00,25.0,-99.9,30.32,NNE,16,-999.0,-999.0,-999,-99.99,,,-99.99,,2013-03-18 04:33:00,
2013-03-18 00:43:00,25.0,-99.9,30.32,NNE,16,-999.0,-999.0,-999,-99.99,,,-99.99,,2013-03-18 04:43:00,
2013-03-18 00:52:00,24.0,-99.9,30.33,NNE,16,-999.0,-999.0,-999,-99.99,,,-99.99,,2013-03-18 04:52:00,
2013-03-18 01:23:00,24.0,-99.9,30.33,NNE,16,-999.0,-999.0,-999,-99.99,,,-99.99,,2013-03-18 05:23:00,
2013-03-18 01:33:00,24.0,-99.9,30.33,NNE,16,-999.0,-999.0,-999,-99.99,,,-99.99,,2013-03-18 05:33:00,
2013-03-18 01:43:00,24.0,-99.9,30.33,NNE,16,-999.0,-999.0,-999,-99.99,,,-99.99,,2013-03-18 05:43:00,
2013-03-18 01:52:00,23.0,-99.9,30.33,NNE,16,-999.0,-999.0,-999,-99.99,,,-99.99,,2013-03-18 05:52:00,
2013-03-18 02:22:00,23.0,-99.9,30.33,NNE,16,-999.0,-999.0,-999,-99.99,,,-99.99,,2013-03-18 06:22:00,
2013-03-18 02:32:00,23.0,-99.9,30.33,NNE,16,-999.0,-999.0,-999,-99.99,,,-99.99,,2013-03-18 06:32:00,
2013-03-18 02:42:00,23.0,-99.9,30.33,NNE,16,-999.0,-999.0,-999,-99.99,,,-99.99,,2013-03-18 06:42:00,
2013-03-18 02:52:00,23.0,-99.9,30.35,NNE,16,-999.0,-999.0,-999,-99.99,,,-99.99,,2013-03-18 06:52:00,
2013-03-18 03:23:00,23.0,-99.9,30.35,NNE,16,-999.0,-999.0,-999,-99.99,,,-99.99,,2013-03-18 07:23:00,
2013-03-18 03:33:00,23.0,-99.9,30.35,NNE,16,-999.0,-999.0,-999,-99.99,,,-99.99,,2013-03-18 07:33:00,
2013-03-18 03:43:00,23.0,-99.9,30.35,NNE,16,-999.0,-999.0,-999,-99.99,,,-99.99,,2013-03-18 07:43:00,
2013-03-18 03:52:00,22.0,-99.9,30.37,NNE,16,-999.0,-999.0,-999,-99.99,,,-99.99,,2013-03-18 07:52:00,
2013-03-18 04:22:00,22.0,-99.9,30.37,NNE,16,-999.0,-999.0,-999,-99.99,,,-99.99,,2013-03-18 08:22:00,
2013-03-18 04:32:00,22.0,-99.9,30.37,NNE,16,-999.0,-999.0,-999,-99.99,,,-99.99,,2013-03-18 08:32:00,
2013-03-18 04:43:00,22.0,-99.9,30.37,NNE,16,-999.0,-999.0,-999,-99.99,,,-99.99,,2013-03-18 08:43:00,
2013-03-18 04:52:00,20.0,-99.9,30.38,NNE,16,-999.0,-999.0,-999,-99.99,,,-99.99,,2013-03-18 08:52:00,
2013-03-18 05:22:00,20.0,-99.9,30.38,NNE,16,-999.0,-999.0,-999,-99.99,,,-99.99,,2013-03-18 09:22:00,
2013-03-18 05:33:00,20.0,-99.9,30.38,NNE,16,-999.0,-999.0,-999,-99.99,,,-99.99,,2013-03-18 09:33:00,
2013-03-18 05:43:00,20.0,-99.9,30.38,NNE,16,-999.0,-999.0,-999,-99.99,,,-99.99,,2013-03-18 09:43:00,
2013-03-18 05:52:00,20.0,-99.9,30.39,NNE,16,-999.0,-999.0,-999,-99.99,,,-99.99,,2013-03-18 09:52:00,
2013-03-18 06:33:00,20.0,-99.9,30.39,NNE,16,-999.0,-999.0,-999,-99.99,,,-99.99,,2013-03-18 10:33:00,
2013-03-18 06:42:00,20.0,-99.9,30.39,NNE,16,-999.0,-999.0,-999,-99.99,,,-99.99,,2013-03-18 10:42:00,
2013-03-18 06:52:00,22.0,-99.9,30.39,ENE,57,-999.0,-999.0,-999,-99.99,,,-99.99,,2013-03-18 10:52:00,
2013-03-18 07:32:00,22.0,-99.9,30.39,ENE,57,-999.0,-999.0,-999,-99.99,,,-99.99,,2013-03-18 11:32:00,
2013-03-18 07:43:00,22.0,-99.9,30.39,ENE,57,-999.0,-999.0,-999,-99.99,,,-99.99,,2013-03-18 11:43:00,
2013-03-18 07:52:00,24.0,-99.9,30.39,East,97,5.0,6.0,-999,-99.99,,,-99.99,,2013-03-18 11:52:00,
2013-03-18 08:33:00,24.0,-99.9,30.39,East,97,5.0,6.0,-999,-99.99,,,-99.99,,2013-03-18 12:33:00,
2013-03-18 08:43:00,24.0,-99.9,30.39,East,97,5.0,6.0,-999,-99.99,,,-99.99,,2013-03-18 12:43:00,
2013-03-18 08:52:00,26.0,-99.9,30.39,NNE,17,-999.0,6.0,-999,-99.99,,,-99.99,,2013-03-18 12:52:00,
2013-03-18 09:23:00,26.0,-99.9,30.39,NNE,17,-999.0,6.0,-999,-99.99,,,-99.99,,2013-03-18 13:23:00,
2013-03-18 09:33:00,26.0,-99.9,30.39,NNE,17,-999.0,6.0,-999,-99.99,,,-99.99,,2013-03-18 13:33:00,
2013-03-18 09:43:00,26.0,-99.9,30.39,NNE,17,-999.0,6.0,-999,-99.99,,,-99.99,,2013-03-18 13:43:00,
2013-03-18 09:52:00,28.0,-99.9,30.38,WSW,253,-999.0,7.0,-999,-99.99,,,-99.99,,2013-03-18 13:52:00,
2013-03-18 10:22:00,28.0,-99.9,30.38,WSW,253,-999.0,7.0,-999,-99.99,,,-99.99,,2013-03-18 14:22:00,
2013-03-18 10:32:00,28.0,-99.9,30.38,WSW,253,-999.0,7.0,-999,-99.99,,,-99.99,,2013-03-18 14:32:00,
2013-03-18 10:42:00,28.0,-99.9,30.38,WSW,253,-999.0,7.0,-999,-99.99,,,-99.99,,2013-03-18 14:42:00,
2013-03-18 10:52:00,31.0,-99.9,30.36,SSW,199,-999.0,8.0,-999,-99.99,,,-99.99,,2013-03-18 14:52:00,
2013-03-18 11:23:00,31.0,-99.9,30.36,SSW,199,-999.0,8.0,-999,-99.99,,,-99.99,,2013-03-18 15:23:00,
2013-03-18 11:33:00,31.0,-99.9,30.36,SSW,199,-999.0,8.0,-999,-99.99,,,-99.99,,2013-03-18 15:33:00,
2013-03-18 11:43:00,31.0,-99.9,30.36,SSW,199,-999.0,8.0,-999,-99.99,,,-99.99,,2013-03-18 15:43:00,
2013-03-18 11:52:00,32.0,-99.9,30.34,SSW,213,-999.0,5.0,-999,-99.99,,,-99.99,,2013-03-18 15:52:00,
2013-03-18 12:23:00,32.0,-99.9,30.34,SSW,213,-999.0,5.0,-999,-99.99,,,-99.99,,2013-03-18 16:23:00,
2013-03-18 12:33:00,32.0,-99.9,30.34,SSW,213,-999.0,5.0,-999,-99.99,,,-99.99,,2013-03-18 16:33:00,
2013-03-18 12:42:00,32.0,-99.9,30.34,SSW,213,-999.0,5.0,-999,-99.99,,,-99.99,,2013-03-18 16:42:00,
2013-03-18 12:52:00,33.0,-99.9,30.32,SSE,159,-999.0,8.0,-999,-99.99,,,-99.99,,2013-03-18 16:52:00,
2013-03-18 13:33:00,33.0,-99.9,30.32,SSE,159,-999.0,8.0,-999,-99.99,,,-99.99,,2013-03-18 17:33:00,
2013-03-18 13:43:00,33.0,-99.9,30.32,SSE,159,-999.0,8.0,-999,-99.99,,,-99.99,,2013-03-18 17:43:00,
2013-03-18 13:52:00,34.0,-99.9,30.27,SE,127,-999.0,7.0,-999,-99.99,,,-99.99,,2013-03-18 17:52:00,
2013-03-18 14:22:00,34.0,-99.9,30.27,SE,127,-999.0,7.0,-999,-99.99,,,-99.99,,2013-03-18 18:22:00,
2013-03-18 14:32:00,34.0,-99.9,30.27,SE,127,-999.0,7.0,-999,-99.99,,,-99.99,,2013-03-18 18:32:00,
2013-03-18 14:42:00,34.0,-99.9,30.27,SE,127,-999.0,7.0,-999,-99.99,,,-99.99,,2013-03-18 18:42:00,
2013-03-18 14:52:00,33.0,-99.9,30.24,East,97,3.0,8.0,-999,-99.99,,,-99.99,,2013-03-18 18:52:00,
2013-03-18 15:22:00,33.0,-99.9,30.24,East,97,3.0,8.0,-999,-99.99,,,-99.99,,2013-03-18 19:22:00,
2013-03-18 15:33:00,33.0,-99.9,30.24,East,97,3.0,8.0,-999,-99.99,,,-99.99,,2013-03-18 19:33:00,
2013-03-18 15:42:00,33.0,-99.9,30.24,East,97,3.0,8.0,-999,-99.99,,,-99.99,,2013-03-18 19:42:00,
2013-03-18 15:52:00,33.0,-99.9,30.22,NW,321,-999.0,6.0,-999,-99.99,,,-99.99,,2013-03-18 19:52:00,
2013-03-18 16:23:00,33.0,-99.9,30.22,NW,321,-999.0,6.0,-999,-99.99,,,-99.99,,2013-03-18 20:23:00,
2013-03-18 16:33:00,33.0,-99.9,30.22,NW,321,-999.0,6.0,-999,-99.99,,,-99.99,,2013-03-18 20:33:00,
2013-03-18 16:43:00,33.0,-99.9,30.22,NW,321,-999.0,6.0,-999,-99.99,,,-99.99,,2013-03-18 20:43:00,
2013-03-18 16:52:00,30.0,-99.9,30.19,SE,137,6.0,7.0,-999,-99.99,,,-99.99,,2013-03-18 20:52:00,
2013-03-18 17:33:00,30.0,-99.9,30.19,SE,137,6.0,7.0,-999,-99.99,,,-99.99,,2013-03-18 21:33:00,
2013-03-18 17:43:00,30.0,-99.9,30.19,SE,137,6.0,7.0,-999,-99.99,,,-99.99,,2013-03-18 21:43:00,
2013-03-18 17:52:00,28.0,-99.9,30.15,NE,50,-999.0,7.0,-999,-99.99,,,-99.99,,2013-03-18 21:52:00,
2013-03-18 18:23:00,28.0,-99.9,30.15,NE,50,-999.0,7.0,-999,-99.99,,,-99.99,,2013-03-18 22:23:00,
2013-03-18 18:33:00,28.0,-99.9,30.15,NE,50,-999.0,7.0,-999,-99.99,,,-99.99,,2013-03-18 22:33:00,
2013-03-18 18:43:00,28.0,-99.9,30.15,NE,50,-999.0,7.0,-999,-99.99,,,-99.99,,2013-03-18 22:43:00,
2013-03-18 18:52:00,27.0,-99.9,30.15,North,-999,3.0,7.0,-999,-99.99,,,-99.99,,2013-03-18 22:52:00,
2013-03-18 19:23:00,27.0,-99.9,30.15,North,-999,3.0,7.0,-999,-99.99,,,-99.99,,2013-03-18 23:23:00,
2013-03-18 19:33:00,27.0,-99.9,30.15,North,-999,3.0,7.0,-999,-99.99,,,-99.99,,2013-03-18 23:33:00,
2013-03-18 19:43:00,27.0,-99.9,30.15,North,-999,3.0,7.0,-999,-99.99,,,-99.99,,2013-03-18 23:43:00,
2013-03-18 19:52:00,27.0,-99.9,30.13,North,11,-999.0,-999.0,-999,-99.99,,,-99.99,,2013-03-18 23:52:00,
2013-03-18 20:23:00,27.0,-99.9,30.13,North,11,-999.0,-999.0,-999,-99.99,,,-99.99,,2013-03-19 00:23:00,
2013-03-18 20:33:00,27.0,-99.9,30.13,North,11,-999.0,-999.0,-999,-99.99,,,-99.99,,2013-03-19 00:33:00,
2013-03-18 20:43:00,27.0,-99.9,30.13,North,11,-999.0,-999.0,-999,-99.99,,,-99.99,,2013-03-19 00:43:00,
2013-03-18 20:52:00,27.0,-99.9,30.11,NW,315,-999.0,7.0,-999,-99.99,,,-99.99,,2013-03-19 00:52:00,
2013-03-18 21:23:00,27.0,-99.9,30.11,NW,315,-999.0,7.0,-999,-99.99,,,-99.99,,2013-03-19 01:23:00,
2013-03-18 21:33:00,27.0,-99.9,30.11,NW,315,-999.0,7.0,-999,-99.99,,,-99.99,,2013-03-19 01:33:00,
2013-03-18 21:43:00,27.0,-99.9,30.11,NW,315,-999.0,7.0,-999,-99.99,,,-99.99,,2013-03-19 01:43:00,
2013-03-18 21:52:00,28.0,-99.9,30.08,NNW,336,-999.0,-999.0,-999,-99.99,,,-99.99,,2013-03-19 01:52:00,
2013-03-18 22:23:00,28.0,-99.9,30.08,NNW,336,-999.0,-999.0,-999,-99.99,,,-99.99,,2013-03-19 02:23:00,
2013-03-18 22:33:00,28.0,-99.9,30.08,NNW,336,-999.0,-999.0,-999,-99.99,,,-99.99,,2013-03-19 02:33:00,
2013-03-18 22:43:00,28.0,-99.9,30.08,NNW,336,-999.0,-999.0,-999,-99.99,,,-99.99,,2013-03-19 02:43:00,
2013-03-18 22:52:00,29.0,-99.9,30.06,NE,36,-999.0,-999.0,-999,-99.99,,,-99.99,,2013-03-19 02:52:00,
2013-03-18 23:23:00,29.0,-99.9,30.06,NE,36,-999.0,-999.0,-999,-99.99,,,-99.99,,2013-03-19 03:23:00,
2013-03-18 23:33:00,29.0,-99.9,30.06,NE,36,-999.0,-999.0,-999,-99.99,,,-99.99,,2013-03-19 03:33:00,
2013-03-18 23:43:00,29.0,-99.9,30.06,NE,36,-999.0,-999.0,-999,-99.99,,,-99.99,,2013-03-19 03:43:00,
2013-03-18 23:52:00,29.0,-99.9,30.00,NNE,23,-999.0,-999.0,-999,-99.99,,,-99.99,,2013-03-19 03:52:00,